CAPE
0 1 2 3 1 0 1 1 3 1 1 0 1 2 0 0 0 0 0 0 0 0 0 0 0 0 0 0 0 0 0 0 0 0 0 0 0 0 0 0 0 0 0 0 901
0 1 3 4 1 2 0 0 2 1 1 1 1 1 0 0 0 0 0 0 0 0 0 0 0 0 0 0 0 0 0 0 0 0 0 0 0 0 0 0 0 0 0 0 0
0 2 3 1 0 3 3 2 2 2 3 1 0 0 0 0 0 0 0 0 0 0 0 0 0 0 0 0 0 0 0 0 0 0 0 0 0 0 0 0 0 0 0 0 0
0 3 4 1 3 2 2 1 1 0 0 0 0 0 0 0 0 0 0 0 0 0 0 0 0 0 0 0 0 0 0 0 0 0 0 0 0 0 0 0 0 0 0 0 0
1 3 1 1 2 1 0 0 0 0 0 0 0 0 0 0 0 0 0 0 0 0 0 0 0 0 0 0 0 0 0 0 0 0 0 0 0 0 0 0 0 0 0 0 0
1 2 0 1 1 0 0 0 0 0 0 0 0 0 0 0 0 0 0 0 0 0 0 0 0 0 0 0 0 0 0 0 0 0 0 0 0 0 0 0 0 0 0 0 0
0 2 0 1 0 0 0 0 0 0 0 0 0 0 0 0 0 0 0 0 0 0 0 0 0 0 0 0 0 0 0 0 0 0 0 0 0 0 0 0 0 0 0 0 0
0 0 1 0 0 0 0 0 0 0 0 0 0 0 0 0 0 0 0 0 0 0 0 0 0 0 0 0 0 0 0 0 0 0 0 0 0 0 0 0 0 0 0 0 0
0 0 0 0 0 0 0 0 0 0 0 0 0 0 0 0 0 0 0 0 0 0 0 0 0 0 0 0 0 0 0 0 0 0 0 0 0 0 0 0 0 0 0 0 0
0 0 0 0 0 0 0 0 0 0 0 0 0 0 0 0 0 0 0 0 0 0 0 0 0 0 0 0 0 0 0 0 0 0 0 0 0 0 0 0 0 0 0 0 0
0 0 0 0 0 0 0 0 0 0 0 0 0 0 0 0 0 0 0 0 0 0 0 0 0 0 0 0 0 0 0 0 0 0 0 0 0 0 0 0 0 0 0 0 0
0 0 0 0 0 0 0 0 0 0 0 0 0 0 0 0 0 0 0 0 0 0 0 0 0 0 0 0 0 0 0 0 0 0 0 0 0 0 0 0 0 0 0 0 0
0 0 0 0 0 0 0 0 0 0 0 0 0 0 0 0 0 0 0 0 0 0 0 0 0 0 0 0 0 0 0 0 0 0 0 0 0 0 0 0 0 0 0 0 0
0 0 0 0 0 0 0 0 0 0 0 0 0 0 0 0 0 0 0 0 0 0 0 0 0 0 0 0 0 0 0 0 0 0 0 0 0 0 0 0 0 0 0 0 0
0 0 0 0 0 0 0 0 0 0 0 0 0 0 0 0 0 0 0 0 0 0 0 0 0 0 0 0 0 0 0 0 0 0 0 0 0 0 0 0 0 0 0 0 0
0 0 0 0 0 0 0 0 0 0 0 0 0 0 0 0 0 0 0 0 0 0 0 0 0 0 0 0 0 0 0 0 0 0 0 0 0 0 0 0 0 0 0 0 0
0 0 0 0 0 0 0 0 0 0 0 0 0 0 0 0 0 0 0 0 0 0 0 0 0 0 0 0 0 0 0 0 0 0 0 0 0 0 0 0 0 0 0 0 0
0 0 0 0 0 0 0 0 0 0 0 0 0 0 0 0 0 0 0 0 0 0 0 0 0 0 0 0 0 0 0 0 0 0 0 0 0 0 0 0 0 0 0 0 0
0 0 0 0 0 0 0 0 0 0 0 0 0 0 0 0 0 0 0 0 1 0 1 1 0 0 0 0 0 0 0 1 2 0 0 0 0 0 0 0 0 0 0 0 0
0 0 0 0 0 0 0 0 0 0 0 0 0 0 0 0 0 0 0 0 12 10 2 9 2 0 0 0 0 0 1 2 6 0 0 0 0 0 0 0 0 0 0 0 0
0 0 0 0 0 0 0 0 0 0 0 0 0 0 0 0 0 0 0 0 1 13 7 3 2 0 0 0 0 0 0 0 1 0 1 0 0 0 0 0 0 0 0 0 0
0 0 0 0 0 0 0 0 0 0 0 0 0 0 0 0 0 0 0 0 11 15 17 0 4 0 0 0 0 0 0 0 0 0 0 1 0 0 0 0 0 0 0 0 0
0 0 0 0 0 0 0 0 0 0 0 0 0 0 0 0 0 0 0 0 0 8 20 1 0 0 0 0 0 0 0 1 1 1 0 0 0 0 0 0 0 0 0 0 0
0 0 0 0 0 0 0 0 0 0 0 0 0 0 0 0 0 0 0 0 2 0 2 2 0 1 0 0 0 0 0 1 0 0 0 0 0 0 0 0 0 0 0 0 0
0 0 0 0 0 0 0 0 0 0 0 0 0 0 0 0 0 0 0 0 0 0 0 1 2 0 0 0 0 0 1 1 1 1 0 0 0 0 0 0 0 0 0 12 16
0 0 0 0 0 0 0 0 0 0 0 0 0 0 0 0 0 0 0 0 0 0 1 0 0 0 0 0 0 0 0 1 0 10 2 2 0 0 3 0 0 0 10 60 8
0 0 0 0 0 0 0 0 0 0 0 0 0 0 0 0 0 0 0 0 0 1 1 0 0 0 0 0 0 0 1 1 0 2 3 0 0 3 1 0 0 0 0 1 36
CIN
-0 -0 -0 -0 -0 -0 -1 -0 -0 -0 -0 -0 -0 -0 -0 -0 -0 -0 -0 -0 -0 -0 -0 -0 -0 -0 -0 -0 -0 -0 -0 -0 -0 -0 -0 -0 -0 -0 -0 -0 -0 -0 -0 -0 -195
-0 -0 -0 -0 -0 -0 -0 -0 -0 -0 -0 -0 -0 -0 -0 -0 -0 -0 -0 -0 -0 -0 -0 -0 -0 -0 -0 -0 -0 -0 -0 -0 -0 -0 -0 -0 -0 -0 -0 -0 -0 -0 -0 -0 -0
-0 -0 -0 -0 -0 -0 -0 -0 -0 -0 -0 -0 -0 -0 -0 -0 -0 -0 -0 -0 -0 -0 -0 -0 -0 -0 -0 -0 -0 -0 -0 -0 -0 -0 -0 -0 -0 -0 -0 -0 -0 -0 -0 -0 -0
-0 -0 -0 -0 -0 -0 -0 -0 -0 -0 -0 -0 -0 -0 -0 -0 -0 -0 -0 -0 -0 -0 -0 -0 -0 -0 -0 -0 -0 -0 -0 -0 -0 -0 -0 -0 -0 -0 -0 -0 -0 -0 -0 -0 -0
-0 -0 -0 -0 -0 -0 -0 -0 -0 -0 -0 -0 -0 -0 -0 -0 -0 -0 -0 -0 -0 -0 -0 -0 -0 -0 -0 -0 -0 -0 -0 -0 -0 -0 -0 -0 -0 -0 -0 -0 -0 -0 -0 -0 -0
-0 -0 -0 -0 -0 -0 -0 -0 -0 -0 -0 -0 -0 -0 -0 -0 -0 -0 -0 -0 -0 -0 -0 -0 -0 -0 -0 -0 -0 -0 -0 -0 -0 -0 -0 -0 -0 -0 -0 -0 -0 -0 -0 -0 -0
-0 -0 -0 -0 -0 -0 -0 -0 -0 -0 -0 -0 -0 -0 -0 -0 -0 -0 -0 -0 -0 -0 -0 -0 -0 -0 -0 -0 -0 -0 -0 -0 -0 -0 -0 -0 -0 -0 -0 -0 -0 -0 -0 -0 -0
-0 -0 -0 -0 -0 -0 -0 -0 -0 -0 -0 -0 -0 -0 -0 -0 -0 -0 -0 -0 -0 -0 -0 -0 -0 -0 -0 -0 -0 -0 -0 -0 -0 -0 -0 -0 -0 -0 -0 -0 -0 -0 -0 -0 -0
-0 -0 -0 -0 -0 -0 -0 -0 -0 -0 -0 -0 -0 -0 -0 -0 -0 -0 -0 -0 -0 -0 -0 -0 -0 -0 -0 -0 -0 -0 -0 -0 -0 -0 -0 -0 -0 -0 -0 -0 -0 -0 -0 -0 -0
-0 -0 -0 -0 -0 -0 -0 -0 -0 -0 -0 -0 -0 -0 -0 -0 -0 -0 -0 -0 -0 -0 -0 -0 -0 -0 -0 -0 -0 -0 -0 -0 -0 -0 -0 -0 -0 -0 -0 -0 -0 -0 -0 -0 -0
-0 -0 -0 -0 -0 -0 -0 -0 -0 -0 -0 -0 -0 -0 -0 -0 -0 -0 -0 -0 -0 -0 -0 -0 -0 -0 -0 -0 -0 -0 -0 -0 -0 -0 -0 -0 -0 -0 -0 -0 -0 -0 -0 -0 -0
-0 -0 -0 -0 -0 -0 -0 -0 -0 -0 -0 -0 -0 -0 -0 -0 -0 -0 -0 -0 -0 -0 -0 -0 -0 -0 -0 -0 -0 -0 -0 -0 -0 -0 -0 -0 -0 -0 -0 -0 -0 -0 -0 -0 -0
-0 -0 -0 -0 -0 -0 -0 -0 -0 -0 -0 -0 -0 -0 -0 -0 -0 -0 -0 -0 -0 -0 -0 -0 -0 -0 -0 -0 -0 -0 -0 -0 -0 -0 -0 -0 -0 -0 -0 -0 -0 -0 -0 -0 -0
-0 -0 -0 -0 -0 -0 -0 -0 -0 -0 -0 -0 -0 -0 -0 -0 -0 -0 -0 -0 -0 -0 -0 -0 -0 -0 -0 -0 -0 -0 -0 -0 -0 -0 -0 -0 -0 -0 -0 -0 -0 -0 -0 -0 -0
-0 -0 -0 -0 -0 -0 -0 -0 -0 -0 -0 -0 -0 -0 -0 -0 -0 -0 -0 -0 -0 -0 -0 -0 -0 -0 -0 -0 -0 -0 -0 -0 -0 -0 -0 -0 -0 -0 -0 -0 -0 -0 -0 -0 -0
-0 -0 -0 -0 -0 -0 -0 -0 -0 -0 -0 -0 -0 -0 -0 -0 -0 -0 -0 -0 -0 -0 -0 -0 -0 -0 -0 -0 -0 -0 -0 -0 -0 -0 -0 -0 -0 -0 -0 -0 -0 -0 -0 -0 -0
-0 -0 -0 -0 -0 -0 -0 -0 -0 -0 -0 -0 -0 -0 -0 -0 -0 -0 -0 -0 -0 -0 -0 -0 -0 -0 -0 -0 -0 -0 -0 -0 -0 -0 -0 -0 -0 -0 -0 -0 -0 -0 -0 -0 -0
-0 -0 -0 -0 -0 -0 -0 -0 -0 -0 -0 -0 -0 -0 -0 -0 -0 -0 -0 -0 -0 -0 -0 -0 -0 -0 -0 -0 -0 -0 -0 -0 -0 -0 -0 -0 -0 -0 -0 -0 -0 -0 -0 -0 -0
-0 -0 -0 -0 -0 -0 -0 -0 -0 -0 -0 -0 -0 -0 -0 -0 -0 -0 -0 -0 -3 -0 -0 -2 -0 -0 -0 -0 -0 -0 -0 -7 -1 -0 -0 -0 -0 -0 -0 -0 -0 -0 -0 -0 -0
-0 -0 -0 -0 -0 -0 -0 -0 -0 -0 -0 -0 -0 -0 -0 -0 -0 -0 -0 -0 -10 -36 -40 -9 -0 -0 -0 -0 -0 -0 -8 -1 -1 -4 -0 -0 -0 -0 -0 -0 -0 -0 -0 -0 -0
-0 -0 -0 -0 -0 -0 -0 -0 -0 -0 -0 -0 -0 -0 -0 -0 -0 -0 -0 -0 -8 -21 -48 -24 -1 -0 -0 -0 -0 -0 -0 -0 -4 -0 -3 -0 -0 -0 -0 -0 -0 -0 -0 -0 -0
-0 -0 -0 -0 -0 -0 -0 -0 -0 -0 -0 -0 -0 -0 -0 -0 -0 -0 -0 -0 -9 -12 -7 -15 -6 -0 -0 -0 -0 -0 -0 -0 -0 -0 -0 -0 -0 -0 -0 -0 -0 -0 -0 -0 -0
-0 -0 -0 -0 -0 -0 -0 -0 -0 -0 -0 -0 -0 -0 -0 -0 -0 -0 -0 -0 -0 -12 -3 -17 -0 -0 -0 -0 -0 -0 -9 -0 -0 -0 -0 -0 -0 -0 -0 -0 -0 -0 -0 -0 -0
-0 -0 -0 -0 -0 -0 -0 -0 -0 -0 -0 -0 -0 -0 -0 -0 -0 -0 -0 -0 -9 -0 -0 -7 -0 -0 -1 -0 -0 -0 -0 -0 -0 -0 -0 -0 -0 -0 -0 -0 -0 -0 -0 -0 -0
-0 -0 -0 -0 -0 -0 -0 -0 -0 -0 -0 -0 -0 -0 -0 -0 -0 -0 -0 -0 -0 -0 -0 -0 -1 -0 -0 -0 -0 -0 -0 -0 -0 -0 -0 -0 -0 -0 -0 -0 -0 -0 -0 -38 -39
-0 -0 -0 -0 -0 -0 -0 -0 -0 -0 -0 -0 -0 -0 -0 -0 -0 -0 -0 -0 -0 -0 -0 -0 -0 -0 -0 -0 -0 -0 -0 -1 -0 -0 -0 -4 -0 -0 -2 -0 -0 -0 -83 -21 -22
-0 -0 -0 -0 -0 -0 -0 -0 -0 -0 -0 -0 -0 -0 -0 -0 -0 -0 -0 -0 -0 -0 -0 -0 -0 -0 -0 -0 -0 -0 -0 -0 -0 -0 -0 -0 -0 -0 -0 -0 -0 -0 -0 -26 -38
Wind_Speed
14 14 12 7 23 31 31 30 29 27 26 25 25 26 27 30 32 22 20 15 17 17 18 21 18 18 17 20 20 20 32 38 37 36 38 39 40 31 30 33 31 25 25 27 23
14 13 10 6 6 4 5 22 25 25 25 25 25 25 26 28 25 23 16 14 14 17 19 22 23 23 21 21 21 24 33 36 31 36 42 43 43 44 39 40 33 32 29 25 19
19 17 13 7 5 6 9 15 19 21 23 23 24 24 26 25 23 22 16 14 15 18 19 20 22 21 22 23 24 26 34 34 36 37 37 39 41 37 38 42 35 34 32 28 23
24 20 16 13 8 4 3 10 13 16 19 22 24 26 27 20 24 18 14 14 16 19 21 22 23 24 25 27 27 32 31 31 35 36 38 41 39 40 36 36 33 32 31 29 27
20 20 19 16 9 4 13 15 18 20 22 23 25 26 22 22 20 15 13 16 19 20 21 22 23 24 29 28 31 29 32 36 37 39 40 40 42 43 42 38 33 35 34 33 30
21 22 21 15 6 15 18 18 19 21 23 24 24 23 21 23 18 14 13 17 18 17 18 19 21 21 23 28 30 31 38 40 38 41 39 41 46 43 43 37 39 38 39 39 35
23 23 23 19 18 21 21 20 20 21 22 24 22 21 22 21 19 14 13 15 15 15 18 17 17 19 20 27 22 29 38 39 36 33 39 39 48 48 46 41 45 42 44 43 39
28 28 24 27 27 25 23 21 21 20 22 23 20 21 21 18 18 15 13 14 12 11 13 15 17 18 18 20 24 28 26 31 29 34 30 33 47 47 45 46 48 46 45 45 43
25 22 15 28 25 23 23 23 21 19 20 21 21 21 21 19 20 17 8 12 14 12 11 14 17 17 19 21 27 24 31 33 32 28 31 31 46 41 42 43 46 41 40 42 41
25 19 28 28 25 24 25 24 25 21 20 18 19 21 21 22 20 18 11 9 12 15 15 17 18 20 21 21 30 35 34 31 36 29 36 40 44 41 39 38 43 45 44 45 45
33 23 32 26 23 24 25 23 28 23 21 19 18 19 19 19 19 16 15 13 12 16 15 21 23 24 22 8 31 38 35 34 35 27 24 40 42 44 41 41 41 44 43 46 48
31 30 25 22 22 21 23 27 23 20 21 17 14 14 12 18 23 23 16 16 14 14 18 25 30 36 32 30 30 35 34 37 34 28 24 14 28 47 43 43 45 45 45 44 47
26 34 28 24 22 22 22 24 25 19 20 20 19 19 21 20 18 19 19 14 12 15 22 32 32 33 35 28 36 38 30 30 25 38 28 21 28 16 42 38 40 45 45 43 46
29 42 35 26 21 22 23 21 23 18 24 23 23 21 25 24 19 23 27 16 15 13 29 30 29 28 34 39 37 41 23 27 29 28 22 22 45 27 40 45 43 48 50 50 50
40 39 30 26 22 24 21 20 19 18 30 22 22 18 28 28 23 25 27 21 18 25 31 37 36 39 39 41 36 39 28 20 23 28 29 23 25 27 23 41 44 44 47 48 49
45 27 24 22 21 19 18 19 18 24 26 23 22 29 30 26 25 22 26 23 18 25 29 35 30 28 27 25 25 31 32 26 25 27 25 27 17 37 24 15 26 24 33 43 45
41 20 20 21 23 20 21 21 24 28 25 24 26 32 25 28 32 23 29 28 22 28 32 33 25 19 22 30 31 30 32 32 31 25 29 24 18 26 20 20 22 23 34 39 41
37 23 18 17 18 20 24 24 29 25 24 21 20 24 23 26 24 23 30 27 17 24 29 27 28 26 28 30 26 26 18 16 20 31 38 29 23 29 14 20 26 28 36 36 38
40 21 21 23 20 20 25 29 26 27 23 23 21 20 21 24 25 28 27 20 17 24 27 32 24 38 31 10 19 19 16 14 18 18 29 31 34 36 36 35 27 24 23 28 35
30 21 25 28 19 22 25 26 23 20 22 21 22 19 23 29 29 29 26 18 19 16 19 26 38 25 20 23 14 8 13 19 16 20 19 22 31 30 23 20 19 23 28 31 35
28 20 27 31 20 24 26 23 21 19 23 21 20 20 21 28 27 27 20 14 8 12 13 21 21 24 29 17 17 18 15 16 19 20 25 32 29 25 29 23 25 30 31 35 39
28 20 28 27 23 24 24 23 20 22 21 19 20 18 22 24 25 23 17 14 13 18 17 14 22 25 14 9 11 10 11 15 15 17 22 33 47 38 28 25 32 34 39 39 37
31 20 25 25 27 25 23 23 19 23 23 22 21 19 20 26 28 22 21 19 22 17 19 17 19 29 24 20 18 16 15 11 7 10 12 29 34 27 25 29 38 39 39 40 39
27 24 25 25 25 27 26 22 23 22 22 26 19 22 27 24 23 24 23 22 21 13 8 12 14 10 12 16 19 19 17 15 14 17 14 18 43 43 45 48 46 45 44 41 37
27 23 25 24 25 26 23 21 23 28 21 27 21 27 27 26 27 24 26 21 22 15 16 9 16 11 11 13 14 14 12 14 8 10 16 19 16 44 33 40 43 44 40 32 31
27 28 26 24 23 25 24 21 23 25 26 22 25 24 24 24 20 23 20 12 17 20 16 17 17 20 20 15 10 10 8 4 9 15 15 13 40 29 31 33 36 35 35 34 41
23 23 24 24 26 26 23 22 24 25 22 19 27 24 24 22 20 18 14 10 7 16 20 17 21 24 23 19 11 2 9 8 15 11 14 15 19 34 35 37 38 40 33 32 33
Wind_Direction
315 309 307 312 313 327 333 335 340 345 347 348 351 348 344 340 333 351 341 355 354 353 344 334 338 327 318 303 295 293 280 276 277 278 276 279 278 282 285 278 282 283 290 296 301
317 313 318 347 23 28 45 15 4 359 355 354 353 351 350 348 350 345 0 360 4 356 342 328 320 318 308 303 300 287 280 280 282 284 281 278 276 273 276 275 276 275 283 295 297
317 315 315 335 360 36 47 43 30 18 8 2 359 356 351 353 348 350 15 17 8 358 351 339 329 321 308 305 299 292 284 289 285 286 287 282 279 278 276 269 272 271 276 284 288
320 316 314 311 310 343 40 53 47 38 25 12 3 356 349 4 339 359 17 12 359 351 340 332 326 315 307 300 303 291 291 292 289 290 287 282 282 275 275 273 275 271 273 278 280
321 318 314 308 307 7 43 40 34 27 20 13 6 359 3 356 354 5 14 4 355 347 336 332 325 318 306 305 304 293 294 294 292 289 287 284 278 274 271 275 276 271 269 273 274
322 318 314 308 331 36 33 32 28 21 16 12 8 6 9 356 14 24 19 7 7 359 353 345 329 330 317 310 303 301 296 293 293 290 288 283 278 277 271 277 272 272 266 266 270
323 319 315 309 32 27 27 26 23 19 18 12 14 16 15 7 13 28 22 8 10 5 356 358 350 338 335 317 323 314 300 296 295 296 289 289 276 272 274 277 270 268 265 264 266
325 322 317 22 20 22 23 22 19 19 17 15 21 18 12 21 13 10 15 5 1 359 354 352 345 338 334 330 325 319 316 304 307 302 297 294 278 279 279 274 270 266 263 261 261
324 321 2 19 21 24 21 19 18 22 22 27 21 17 10 16 11 13 32 11 8 9 3 347 338 336 331 327 317 320 306 305 308 315 300 296 284 284 284 276 268 265 262 259 261
325 327 17 16 19 20 19 20 24 31 31 33 29 16 18 12 13 12 28 20 11 6 358 344 335 327 324 321 307 304 306 310 305 318 302 294 287 286 285 282 272 266 262 258 258
325 7 12 16 20 20 21 23 19 21 20 22 16 17 15 20 9 14 13 9 359 348 334 324 320 318 322 253 255 277 262 257 300 321 324 296 291 283 283 281 276 268 266 260 255
326 15 18 23 24 28 32 26 25 25 16 25 26 21 22 10 4 3 7 359 350 329 327 311 300 277 268 310 296 273 260 280 309 317 322 265 250 266 281 278 273 271 266 263 255
335 14 19 22 31 35 29 26 21 28 22 23 23 20 22 13 7 1 2 349 335 331 315 294 296 303 298 312 298 295 314 313 290 305 313 311 254 265 278 282 279 270 267 265 256
326 2 10 22 36 29 27 28 21 37 17 20 21 25 7 5 4 5 3 17 10 343 301 294 308 310 297 293 305 269 321 315 310 310 306 320 266 245 284 274 274 268 265 262 258
325 3 16 31 33 30 30 29 37 41 5 18 19 26 12 12 9 4 7 8 358 330 295 285 296 291 292 297 309 307 320 313 312 309 303 306 307 304 308 279 275 273 265 263 259
327 4 28 37 40 41 32 30 43 19 10 13 15 359 359 9 6 4 1 7 358 328 303 298 317 312 313 328 330 327 327 319 311 306 285 303 293 252 306 316 305 294 285 263 261
324 23 37 41 30 34 27 35 21 16 13 9 4 2 7 4 358 3 359 357 356 332 310 310 319 339 338 322 325 329 329 319 311 305 298 306 292 229 303 308 308 304 269 256 262
321 24 36 38 33 28 28 26 16 17 13 9 9 6 9 8 9 5 356 353 1 336 319 318 320 331 327 329 327 325 328 328 320 305 298 304 298 294 305 303 296 291 277 265 256
354 29 32 27 30 34 25 19 17 14 16 12 10 12 10 7 5 0 356 359 1 336 314 305 324 306 273 339 344 342 335 335 319 313 304 296 292 291 290 286 293 296 298 289 279
14 26 22 16 37 30 25 18 21 22 17 15 10 13 2 1 0 2 6 14 4 355 345 331 282 340 346 346 344 323 338 333 327 323 320 316 296 290 302 304 302 297 296 291 285
16 23 14 9 35 26 19 21 21 21 17 19 11 3 2 358 1 3 8 2 40 14 358 345 340 335 334 353 346 340 339 333 321 311 312 305 304 302 293 293 298 292 296 293 280
12 22 7 15 21 22 19 18 18 17 18 15 10 11 3 2 359 357 5 4 360 352 348 350 338 333 334 317 345 343 332 335 324 324 310 302 267 284 297 295 290 293 291 293 290
5 16 12 17 13 14 16 13 19 12 12 14 7 2 5 359 358 5 354 0 348 356 350 349 344 332 343 358 7 359 354 335 277 294 268 301 298 314 297 291 285 293 287 288 286
9 12 8 14 16 11 9 15 11 13 9 9 6 13 0 359 359 351 341 1 353 320 298 339 335 314 311 320 331 330 328 327 313 315 289 254 263 283 278 277 283 283 291 294 291
5 9 5 1 5 2 7 6 7 6 12 5 12 3 359 355 350 355 353 341 351 358 10 21 344 338 310 300 296 290 302 261 270 271 310 272 295 283 298 288 285 281 295 303 306
2 358 359 354 360 0 2 6 3 2 360 2 1 355 355 352 350 336 339 321 358 358 5 1 353 349 341 323 305 290 252 339 345 344 342 333 296 315 304 299 292 297 296 298 281
2 1 360 357 356 357 1 2 355 356 2 358 352 353 354 354 344 321 316 327 350 356 357 8 359 354 348 359 259 173 96 26 359 357 350 346 345 309 303 297 290 277 256 259 257